TimeEST,TemperatureF,Dew PointF,Humidity,Sea Level PressureIn,VisibilityMPH,Wind Direction,Wind SpeedMPH,Gust SpeedMPH,PrecipitationIn,Events,Conditions,WindDirDegrees,DateUTC
12:15 AM,37.4,35.6,93,29.88,10.0,WSW,8.1,-,N/A,,Unknown,250,2013-02-15 05:15:00
12:35 AM,37.4,35.6,93,29.89,10.0,West,6.9,-,N/A,,Unknown,270,2013-02-15 05:35:00
12:55 AM,37.4,35.6,93,29.89,10.0,WSW,6.9,-,N/A,,Unknown,240,2013-02-15 05:55:00
1:15 AM,37.4,35.6,93,29.89,10.0,WSW,3.5,-,N/A,,Unknown,240,2013-02-15 06:15:00
1:35 AM,37.4,35.6,93,29.89,10.0,SW,5.8,-,N/A,,Unknown,230,2013-02-15 06:35:00
1:55 AM,37.4,35.6,93,29.89,10.0,WSW,5.8,-,N/A,,Unknown,240,2013-02-15 06:55:00
2:15 AM,37.4,35.6,93,29.89,10.0,West,6.9,-,N/A,,Unknown,260,2013-02-15 07:15:00
2:35 AM,37.4,35.6,93,29.90,10.0,WSW,6.9,-,N/A,,Unknown,250,2013-02-15 07:35:00
2:55 AM,37.4,37.4,100,29.90,10.0,WSW,6.9,-,N/A,,Unknown,240,2013-02-15 07:55:00
3:15 AM,37.4,35.6,93,29.90,10.0,WSW,5.8,-,N/A,,Unknown,240,2013-02-15 08:15:00
3:35 AM,37.4,35.6,93,29.91,10.0,West,10.4,-,N/A,,Unknown,270,2013-02-15 08:35:00
3:55 AM,35.6,30.2,81,29.92,10.0,WNW,10.4,23.0,N/A,,Unknown,290,2013-02-15 08:55:00
4:15 AM,35.6,28.4,75,29.92,10.0,WNW,10.4,-,N/A,,Unknown,290,2013-02-15 09:15:00
4:35 AM,33.8,28.4,81,29.93,10.0,West,8.1,-,N/A,,Unknown,280,2013-02-15 09:35:00
4:55 AM,33.8,28.4,81,29.94,10.0,West,8.1,-,N/A,,Unknown,280,2013-02-15 09:55:00
5:15 AM,33.8,28.4,81,29.94,10.0,West,6.9,-,N/A,,Unknown,280,2013-02-15 10:15:00
5:35 AM,33.8,28.4,81,29.95,10.0,West,6.9,-,N/A,,Unknown,270,2013-02-15 10:35:00
5:55 AM,32.0,28.4,87,29.95,10.0,West,4.6,-,N/A,,Unknown,260,2013-02-15 10:55:00
6:15 AM,33.8,28.4,81,29.96,10.0,WSW,8.1,-,N/A,,Unknown,250,2013-02-15 11:15:00
6:35 AM,33.8,28.4,81,29.97,10.0,WSW,8.1,-,N/A,,Unknown,250,2013-02-15 11:35:00
6:55 AM,33.8,28.4,81,29.97,10.0,WSW,6.9,-,N/A,,Unknown,250,2013-02-15 11:55:00
7:15 AM,33.8,28.4,81,29.98,10.0,West,9.2,-,N/A,,Unknown,260,2013-02-15 12:15:00
7:35 AM,33.8,28.4,81,29.98,10.0,West,6.9,-,N/A,,Unknown,260,2013-02-15 12:35:00
7:55 AM,33.8,30.2,87,29.98,10.0,West,3.5,-,N/A,,Unknown,260,2013-02-15 12:55:00
8:15 AM,33.8,28.4,81,30.00,10.0,WSW,4.6,-,N/A,,Unknown,250,2013-02-15 13:15:00
8:35 AM,33.8,28.4,81,30.01,10.0,WSW,5.8,-,N/A,,Unknown,240,2013-02-15 13:35:00
8:55 AM,33.8,30.2,87,30.00,10.0,WSW,8.1,-,N/A,,Unknown,240,2013-02-15 13:55:00
9:15 AM,33.8,30.2,87,30.00,10.0,WSW,5.8,-,N/A,,Unknown,250,2013-02-15 14:15:00
9:35 AM,33.8,30.2,87,30.00,10.0,WSW,10.4,-,N/A,,Unknown,250,2013-02-15 14:35:00
9:55 AM,35.6,30.2,81,30.01,10.0,West,10.4,16.1,N/A,,Unknown,260,2013-02-15 14:55:00
10:15 AM,35.6,30.2,81,30.00,10.0,WSW,10.4,17.3,N/A,,Unknown,250,2013-02-15 15:15:00
10:35 AM,35.6,30.2,81,30.00,10.0,WSW,15.0,-,N/A,,Unknown,240,2013-02-15 15:35:00
10:55 AM,35.6,30.2,81,30.00,10.0,West,10.4,-,N/A,,Unknown,260,2013-02-15 15:55:00
11:15 AM,35.6,28.4,75,30.00,10.0,West,11.5,20.7,N/A,,Unknown,260,2013-02-15 16:15:00
11:35 AM,37.4,30.2,75,29.99,10.0,West,10.4,17.3,N/A,,Unknown,260,2013-02-15 16:35:00
11:55 AM,39.2,30.2,70,29.99,10.0,WSW,13.8,20.7,N/A,,Unknown,250,2013-02-15 16:55:00
12:15 PM,37.4,28.4,70,29.99,10.0,WSW,10.4,18.4,N/A,,Unknown,250,2013-02-15 17:15:00
12:55 PM,37.4,28.4,70,29.97,10.0,West,12.7,18.4,N/A,,Unknown,280,2013-02-15 17:55:00
1:15 PM,39.2,28.4,65,29.97,10.0,West,11.5,17.3,N/A,,Unknown,280,2013-02-15 18:15:00
1:35 PM,37.4,28.4,70,29.96,10.0,West,10.4,16.1,N/A,,Unknown,280,2013-02-15 18:35:00
1:55 PM,37.4,28.4,70,29.96,10.0,WSW,11.5,16.1,N/A,,Unknown,250,2013-02-15 18:55:00
2:15 PM,37.4,28.4,70,29.95,10.0,West,10.4,-,N/A,,Unknown,260,2013-02-15 19:15:00
2:35 PM,37.4,28.4,70,29.95,10.0,SW,12.7,16.1,N/A,,Unknown,230,2013-02-15 19:35:00
2:55 PM,37.4,28.4,70,29.95,10.0,WSW,11.5,-,N/A,,Unknown,250,2013-02-15 19:55:00
3:15 PM,37.4,28.4,70,29.95,10.0,WSW,11.5,-,N/A,,Unknown,240,2013-02-15 20:15:00
3:35 PM,37.4,28.4,70,29.95,10.0,WSW,10.4,-,N/A,,Unknown,250,2013-02-15 20:35:00
3:55 PM,37.4,28.4,70,29.96,10.0,WSW,12.7,16.1,N/A,,Unknown,250,2013-02-15 20:55:00
4:15 PM,35.6,30.2,81,29.96,10.0,West,9.2,-,N/A,,Unknown,260,2013-02-15 21:15:00
4:35 PM,35.6,30.2,81,29.96,10.0,WSW,9.2,16.1,N/A,,Unknown,240,2013-02-15 21:35:00
4:55 PM,35.6,33.8,93,29.97,10.0,WSW,8.1,-,N/A,,Unknown,250,2013-02-15 21:55:00
5:15 PM,33.8,33.8,100,29.97,10.0,WNW,3.5,-,N/A,,Unknown,300,2013-02-15 22:15:00
5:35 PM,33.8,33.8,100,29.97,7.0,WNW,5.8,-,N/A,,Unknown,300,2013-02-15 22:35:00
5:55 PM,33.8,33.8,100,29.98,5.0,Calm,Calm,-,N/A,,Unknown,0,2013-02-15 22:55:00
6:15 PM,32.0,32.0,100,29.98,10.0,NW,5.8,-,N/A,,Unknown,310,2013-02-15 23:15:00
6:35 PM,32.0,32.0,100,29.98,10.0,Calm,Calm,-,N/A,,Unknown,0,2013-02-15 23:35:00
6:55 PM,32.0,32.0,100,29.98,10.0,Calm,Calm,-,N/A,,Unknown,0,2013-02-15 23:55:00
7:15 PM,32.0,30.2,93,29.99,10.0,Calm,Calm,-,N/A,,Unknown,0,2013-02-16 00:15:00
7:35 PM,32.0,30.2,93,29.99,10.0,Calm,Calm,-,N/A,,Unknown,0,2013-02-16 00:35:00
7:55 PM,32.0,30.2,93,29.99,10.0,Calm,Calm,-,N/A,,Unknown,0,2013-02-16 00:55:00
8:15 PM,32.0,30.2,93,29.99,10.0,Calm,Calm,-,N/A,,Unknown,0,2013-02-16 01:15:00
8:35 PM,32.0,30.2,93,29.99,10.0,Calm,Calm,-,N/A,,Unknown,0,2013-02-16 01:35:00
8:55 PM,32.0,30.2,93,29.99,10.0,Calm,Calm,-,N/A,,Unknown,0,2013-02-16 01:55:00
9:15 PM,30.2,30.2,100,29.99,7.0,Calm,Calm,-,N/A,,Unknown,0,2013-02-16 02:15:00
9:35 PM,30.2,30.2,100,30.00,4.0,NNW,4.6,-,N/A,,Unknown,340,2013-02-16 02:35:00
9:55 PM,30.2,30.2,100,30.00,4.0,NNW,3.5,-,N/A,,Unknown,330,2013-02-16 02:55:00
10:15 PM,28.4,28.4,100,30.00,2.0,NNW,8.1,-,N/A,,Unknown,330,2013-02-16 03:15:00
10:35 PM,28.4,28.4,100,30.00,2.5,North,4.6,-,N/A,,Unknown,350,2013-02-16 03:35:00
10:55 PM,28.4,28.4,100,30.00,1.8,NNW,4.6,-,N/A,,Unknown,340,2013-02-16 03:55:00
11:15 PM,28.4,28.4,100,30.00,7.0,NNW,5.8,-,N/A,,Unknown,330,2013-02-16 04:15:00
11:35 PM,28.4,28.4,100,30.00,10.0,NNW,4.6,-,N/A,,Unknown,330,2013-02-16 04:35:00
11:55 PM,28.4,28.4,100,30.00,10.0,NW,9.2,-,N/A,,Unknown,310,2013-02-16 04:55:00